Location: Brantley
(31.5822°N, 86.2569°W)
Time: 03:38:49
(UTC+00:00)

Vanguard 2 - Pass Details

Date: 24 February 2026
Orbit: 553 x 2896 km, 32.9° (Epoch: 7 March)

Event Time Altitude Azimuth Distance (km) Brightness Sun altitude
Rises 13:45:42 0° 282° (WNW) 3,354 10.2 17.2°
Reaches altitude 10° 13:48:33 10° 278° (W) 2,182 9.4 17.7°
Maximum altitude 13:53:11 54° 201° (SSW) 712 7.7 18.6°
Drops below altitude 10° 13:57:02 10° 123° (ESE) 1,816 11.7 19.4°
Sets 13:59:12 0° 118° (ESE) 2,727 12.0 19.8°
